This is the latest recevied weather packets stored in our database for station/object N7WSS. If no packets are shown the sender has not sent any weather packets the latest 10 day(s).
| Time | Temp. | Humidity | Pressure | Rain* | Wind** | Luminosity | Snow |
|---|---|---|---|---|---|---|---|
| 1777726299 | 17.22° C | 48% | 1011.9 hPa | 0 mm | - | - | - |
| 1777725692 | 16.11° C | 51% | 1012 hPa | 0 mm | - | - | - |
| 1777725391 | 15.56° C | 53% | 1012.1 hPa | 0 mm | - | - | - |
| 1777725087 | 15° C | 54% | 1012 hPa | 0 mm | - | - | - |
| 1777724784 | 15° C | 55% | 1011.9 hPa | 0 mm | - | - | - |
| 1777724480 | 15° C | 55% | 1011.9 hPa | 0 mm | - | - | - |
| 1777724179 | 14.44° C | 56% | 1011.9 hPa | 0 mm | - | - | - |
| 1777723876 | 14.44° C | 55% | 1011.9 hPa | 0 mm | - | - | - |
| 1777723572 | 14.44° C | 55% | 1011.9 hPa | 0 mm | - | - | - |
| 1777722056 | 14.44° C | 47% | 1011.6 hPa | 0 mm | - | - | - |
| 1777721753 | 14.44° C | 46% | 1011.8 hPa | 0 mm | - | - | - |
| 1777721452 | 15° C | 46% | 1011.7 hPa | 0 mm | - | - | - |
| 1777721149 | 15.56° C | 49% | 1011.7 hPa | 0 mm | - | - | - |
| 1777720847 | 15° C | 47% | 1011.9 hPa | 0 mm | - | - | - |
| 1777720544 | 15° C | 45% | 1011.7 hPa | 0 mm | - | - | - |
| 1777720241 | 15° C | 43% | 1011.8 hPa | 0 mm | - | - | - |
| 1777719939 | 14.44° C | 43% | 1011.8 hPa | 0 mm | - | - | - |
| 1777719636 | 14.44° C | 43% | 1011.8 hPa | 0 mm | - | - | - |
| 1777719333 | 14.44° C | 44% | 1012.3 hPa | 0 mm | - | - | - |
| 1777719031 | 14.44° C | 43% | 1012 hPa | 0 mm | - | - | - |
| 1777718728 | 14.44° C | 43% | 1011.8 hPa | 0 mm | - | - | - |
| 1777718425 | 13.89° C | 43% | 1011.8 hPa | 0 mm | - | - | - |
| 1777718123 | 13.89° C | 43% | 1011.9 hPa | 0 mm | - | - | - |
| 1777717821 | 13.89° C | 43% | 1012 hPa | 0 mm | - | - | - |
| 1777717517 | 13.89° C | 42% | 1011.8 hPa | 0 mm | - | - | - |
* Rain latest hour (hover to see other rain measurements)
** Current wind speed in m/s (hover to see current wind gust speed)